Location: Newark
(45.8667°N, 9.7333°E)
Time: 00:56:29
(UTC+00:00)

Vanguard 3 - Pass Details

Date: 25 January 2020
Orbit: 508 x 3263 km, 33.3° (Epoch: 26 February)

Event Time Altitude Azimuth Distance (km) Brightness Sun altitude
Rises 15:50:37 0° 221° (SW) 6,812 13.6 3.0°
Reaches altitude 10° 15:55:24 10° 214° (SW) 6,002 12.9 2.3°
Maximum altitude 16:12:31 39° 154° (SSE) 4,174 10.8 -0.3°
Drops below altitude 10° 16:27:47 10° 94° (E) 5,416 10.8 -2.7°
Sets 16:31:47 0° 87° (E) 6,117 11.0 -3.4°
Enters shadow 16:31:56 - 87° (E) 6,145 11.0 -3.4°
